Date String (YYYY-MM-DD hh:mm:ss) UTC,Instrument flags,absolute air pressure of the measurement (hPa),sample flow rate (lpm),inlet stack bypass flow (lpm),air temperature of the measurement (°C),ambient temperature measured by the external sensor (°C),aerosol sample conditioner tube jacket temperature (°C),OPC LED temperature (°C),internal box temperature (°C),relative humidity of the measurement (%),span deviation,mass concentration of particles derived from Lorenz-Mie calculation of OPC scattering (μg/m³),mass concentration of particles derived from Lorenz-Mie calculation of OPC scattering (μg/m³),mass concentration of particles derived from Lorenz-Mie calculation of OPC scattering (μg/m³)
DateTimeUTC,F1_M11,P_M11,Q1_M11,Q2_M11,T1_M11,T2_M11,T3_M11,T4_M11,T5_M11,U1_M11,ZSPAN_M11,X0_M11,X2_M11,X1_M11
2023-07-13 02:00:00,SystemResetWarning,0830.3,5.00,000.00,028.7,027.4,000.0,037.0,030.5,26.4,0000.0,0023.41,0006.20,0004.99
2023-07-13 02:01:00,SystemResetWarning,0830.3,5.01,000.00,028.8,027.6,000.0,037.1,030.6,26.3,0000.0,0022.87,0006.20,0004.99
2023-07-13 02:02:00,SystemResetWarning,0830.3,4.98,000.00,028.8,026.5,000.0,037.0,030.4,27.2,0000.0,0021.70,0006.21,0005.00
2023-07-13 02:03:00,SystemResetWarning,0830.3,5.01,000.00,028.7,024.9,000.0,036.9,030.2,27.6,0000.0,0020.81,0006.25,0005.02
2023-07-13 02:04:00,SystemResetWarning,0830.2,5.01,000.00,028.7,024.6,000.0,036.8,030.0,27.7,0000.0,0020.40,0006.25,0005.05
2023-07-13 02:05:00,SystemResetWarning,0830.2,5.00,000.00,028.6,024.9,000.0,036.9,029.9,27.5,0000.0,0020.78,0006.25,0005.08
2023-07-13 02:06:00,SystemResetWarning,0830.2,5.00,000.00,028.6,025.4,000.0,036.9,030.0,27.7,0000.0,0020.48,0006.26,0005.12
2023-07-13 02:07:00,SystemResetWarning,0830.2,5.00,000.00,028.6,025.9,000.0,036.9,030.1,26.8,0000.0,0018.62,0006.28,0005.15
2023-07-13 02:08:00,SystemResetWarning,0830.2,5.00,000.00,028.6,026.4,000.0,037.0,030.2,26.3,0000.0,0018.30,0006.31,0005.18
2023-07-13 02:09:00,SystemResetWarning,0830.2,5.00,000.00,028.6,026.8,000.0,037.0,030.3,26.3,0000.0,0017.40,0006.40,0005.21
2023-07-13 02:10:00,SystemResetWarning,0830.2,4.99,000.00,028.7,027.1,000.0,037.0,030.4,26.3,0000.0,0017.18,0006.44,0005.23
2023-07-13 02:11:00,SystemResetWarning,0830.3,5.00,000.00,028.7,027.4,000.0,037.0,030.5,26.1,0000.0,0016.79,0006.45,0005.24
2023-07-13 02:12:00,SystemResetWarning,0830.2,5.00,000.00,028.8,027.7,000.0,037.1,030.6,26.4,0000.0,0015.83,0006.45,0005.26
2023-07-13 02:13:00,SystemResetWarning,0830.2,4.99,000.00,028.8,026.9,000.0,037.0,030.5,26.2,0000.0,0015.72,0006.42,0005.28
2023-07-13 02:14:00,SystemResetWarning,0830.2,4.99,000.00,028.8,025.2,000.0,036.9,030.2,26.1,0000.0,0015.34,0006.41,0005.28
2023-07-13 02:15:00,SystemResetWarning,0830.2,5.01,000.00,028.7,024.6,000.0,036.8,030.1,26.0,0000.0,0015.41,0006.43,0005.27
2023-07-13 02:16:00,SystemResetWarning,0830.2,5.01,000.00,028.6,024.8,000.0,036.8,029.9,26.0,0000.0,0015.46,0006.44,0005.26
2023-07-13 02:17:00,SystemResetWarning,0830.2,4.99,000.00,028.6,025.3,000.0,036.9,030.0,26.0,0000.0,0015.07,0006.46,0005.25
2023-07-13 02:18:00,SystemResetWarning,0830.2,5.00,000.00,028.6,025.8,000.0,036.9,030.1,25.7,0000.0,0016.13,0006.53,0005.23
2023-07-13 02:19:00,SystemResetWarning,0830.3,5.01,000.00,028.6,026.2,000.0,037.0,030.2,26.0,0000.0,0017.17,0006.57,0005.24
2023-07-13 02:20:00,SystemResetWarning,0830.3,5.01,000.00,028.6,026.7,000.0,037.0,030.3,25.8,0000.0,0017.03,0006.55,0005.27
2023-07-13 02:21:00,SystemResetWarning,0830.3,4.99,000.00,028.7,027.0,000.0,037.0,030.4,25.6,0000.0,0017.20,0006.53,0005.30
2023-07-13 02:22:00,SystemResetWarning,0830.3,4.99,000.00,028.7,027.3,000.0,037.0,030.5,25.5,0000.0,0017.69,0006.52,0005.33
2023-07-13 02:23:00,SystemResetWarning,0830.4,5.01,000.00,028.8,027.6,000.0,037.1,030.6,25.4,0000.0,0017.58,0006.53,0005.36
2023-07-13 02:24:00,SystemResetWarning,0830.4,5.01,000.00,028.8,027.2,000.0,037.0,030.6,25.4,0000.0,0016.73,0006.58,0005.40
2023-07-13 02:25:00,SystemResetWarning,0830.4,4.99,000.00,028.8,025.7,000.0,036.9,030.3,25.5,0000.0,0016.87,0006.67,0005.45
2023-07-13 02:26:00,SystemResetWarning,0830.5,5.01,000.00,028.7,025.5,000.0,036.9,030.2,25.7,0000.0,0017.51,0006.75,0005.51
2023-07-13 02:27:00,SystemResetWarning,0830.4,5.00,000.00,028.7,025.8,000.0,036.9,030.2,25.6,0000.0,0017.07,0006.79,0005.57
2023-07-13 02:28:00,SystemResetWarning,0830.4,5.00,000.00,028.7,026.2,000.0,037.0,030.2,25.5,0000.0,0016.70,0006.84,0005.64
2023-07-13 02:29:00,SystemResetWarning,0830.4,5.00,000.00,028.7,026.6,000.0,037.0,030.3,25.7,0000.0,0015.79,0006.84,0005.70
2023-07-13 02:30:00,SystemResetWarning,0830.4,4.99,000.00,028.8,027.0,000.0,037.1,030.4,25.8,0000.0,0015.52,0006.85,0005.73
2023-07-13 02:31:00,SystemResetWarning,0830.4,4.99,000.00,028.8,027.3,000.0,037.1,030.5,25.8,0000.0,0015.89,0006.89,0005.75
2023-07-13 02:32:00,SystemResetWarning,0830.5,5.00,000.00,028.9,027.6,000.0,037.2,030.6,25.3,0000.0,0015.96,0006.95,0005.78
2023-07-13 02:33:00,SystemResetWarning,0830.5,4.99,000.00,028.9,027.3,000.0,037.1,030.6,25.0,0000.0,0016.30,0007.03,0005.80
2023-07-13 02:34:00,SystemResetWarning,0830.5,5.00,000.00,028.9,025.6,000.0,037.0,030.4,25.6,0000.1,0016.59,0007.05,0005.82
2023-07-13 02:35:00,SystemResetWarning,0830.5,5.01,000.00,028.8,024.7,000.0,036.9,030.2,26.3,0000.1,0017.02,0007.09,0005.81
2023-07-13 02:36:00,SystemResetWarning,0830.6,5.00,000.00,028.7,024.9,000.0,036.9,030.0,26.5,0000.1,0017.15,0007.04,0005.79
2023-07-13 02:37:00,SystemResetWarning,0830.6,5.01,000.00,028.7,025.3,000.0,037.0,030.0,26.8,-000.2,0015.76,0006.96,0005.76
2023-07-13 02:38:00,SystemResetWarning,0830.7,5.00,000.00,028.6,025.8,000.0,037.0,030.1,27.0,-000.3,0015.79,0006.94,0005.72
2023-07-13 02:39:00,SystemResetWarning,0830.8,5.00,000.00,028.7,026.2,000.0,037.0,030.2,27.0,-000.3,0016.88,0006.93,0005.69
2023-07-13 02:40:00,SystemResetWarning,0830.8,5.00,000.00,028.7,026.7,000.0,037.1,030.3,26.9,-000.4,0016.60,0006.90,0005.65
2023-07-13 02:41:00,SystemResetWarning,0830.8,4.99,000.00,028.7,027.0,000.0,037.1,030.4,26.6,-000.5,0015.90,0006.85,0005.60
2023-07-13 02:42:00,SystemResetWarning,0830.8,5.00,000.00,028.8,027.3,000.0,037.1,030.5,26.2,-000.0,0015.81,0006.79,0005.58
2023-07-13 02:43:00,SystemResetWarning,0830.8,5.00,000.00,028.8,027.6,000.0,037.2,030.6,25.8,0000.2,0017.26,0006.76,0005.55
2023-07-13 02:44:00,SystemResetWarning,0830.8,5.00,000.00,028.9,027.8,000.0,037.2,030.7,26.5,0000.7,0017.11,0006.70,0005.54
2023-07-13 02:45:00,SystemResetWarning,0830.8,4.99,000.00,028.9,027.0,000.0,037.1,030.6,26.9,0000.6,0017.66,0006.70,0005.52
2023-07-13 02:46:00,SystemResetWarning,0830.7,5.01,000.00,028.9,025.7,000.0,037.0,030.4,27.4,0000.0,0017.54,0006.62,0005.49
2023-07-13 02:47:00,SystemResetWarning,0830.6,5.02,000.00,028.8,025.7,000.0,037.0,030.3,27.7,0000.3,0017.99,0006.62,0005.49
2023-07-13 02:48:00,SystemResetWarning,0830.6,5.00,000.00,028.8,026.0,000.0,037.1,030.3,27.9,0001.6,0018.67,0006.65,0005.48
2023-07-13 02:49:00,SystemResetWarning,0830.5,5.00,000.00,028.8,026.4,000.0,037.1,030.4,28.5,0000.0,0019.10,0006.65,0005.48
2023-07-13 02:50:00,SystemResetWarning,0830.6,5.00,000.00,028.8,026.7,000.0,037.2,030.4,28.6,0000.0,0019.67,0006.65,0005.48
2023-07-13 02:51:00,SystemResetWarning,0830.5,5.00,000.00,028.9,027.1,000.0,037.2,030.5,28.9,0000.0,0020.52,0006.67,0005.48
2023-07-13 02:52:00,SystemResetWarning,0830.8,5.00,000.00,028.9,027.4,000.0,037.2,030.6,29.0,0000.0,0020.65,0006.68,0005.49
2023-07-13 02:53:00,SystemResetWarning,0830.5,4.99,000.00,029.0,027.6,000.0,037.3,030.7,29.2,0000.0,0021.70,0006.71,0005.50
2023-07-13 02:54:00,SystemResetWarning,0830.5,4.98,000.00,029.0,027.0,000.0,037.2,030.7,29.3,0000.0,0021.90,0006.75,0005.51
2023-07-13 02:55:00,SystemResetWarning,0830.4,5.01,000.00,028.9,025.7,000.0,037.1,030.5,29.5,0000.0,0022.01,0006.75,0005.49
2023-07-13 02:56:00,SystemResetWarning,0830.4,5.01,000.00,028.9,025.6,000.0,037.1,030.4,29.5,0000.0,0022.42,0006.81,0005.48
2023-07-13 02:57:00,SystemResetWarning,0830.5,5.01,000.00,028.8,025.9,000.0,037.1,030.3,29.0,0000.0,0022.78,0006.84,0005.48
2023-07-13 02:58:00,SystemResetWarning,0830.6,4.99,000.00,028.8,026.3,000.0,037.2,030.4,28.3,0000.0,0024.34,0006.91,0005.47
2023-07-13 02:59:00,SystemResetWarning,0830.7,4.99,000.00,028.9,026.6,000.0,037.2,030.5,28.2,0000.0,0023.97,0006.90,0005.45
